When you browse on this site, cookies collect data to enhance your experience and personalize the content and advertising you see.
Visit our Privacy Policy to learn more. By continuing to use the site, you agree to this use of cookies and data.
  • In Czech Republic
  • List of Countries
  • For 7 days
  • Water Temperature
  • Weather Map
  • Weather Widgets
  • user-avatar
    Login

    Hourly Weather Shusha

    Today, 5 April, Sunday

    Time Temperature Precipitation Wind Pressure Humidity
    00:00 +4°C° 0 mm 1 mps 662 mmHg 90%
    01:00 +4°C° 0 mm 1 mps 662 mmHg 87%
    02:00 +4°C° 0 mm 1 mps 661 mmHg 85%
    03:00 +4°C° 0 mm 1 mps 661 mmHg 83%
    04:00 +4°C° 0 mm 1 mps 661 mmHg 82%
    05:00 +4°C° 0 mm 1 mps 662 mmHg 81%
    06:00 +4°C° 0 mm 1 mps 662 mmHg 80%
    07:00 +6°C° 0 mm 1 mps 662 mmHg 75%
    08:00 +8°C° 0 mm 1 mps 663 mmHg 70%
    09:00 +10°C° 0 mm 1 mps 663 mmHg 65%
    10:00 +10°C° 0 mm 2 mps 663 mmHg 64%
    11:00 +12°C° 0 mm 2 mps 663 mmHg 62%
    12:00 +13°C° 0 mm 2 mps 663 mmHg 61%
    13:00 +13°C° 0 mm 2 mps 663 mmHg 62%
    14:00 +14°C° 0 mm 2 mps 662 mmHg 63%
    15:00 +14°C° 0 mm 2 mps 661 mmHg 65%
    16:00 +13°C° 0 mm 2 mps 661 mmHg 70%
    17:00 +12°C° 0 mm 1 mps 661 mmHg 75%
    18:00 +11°C° 0 mm 1 mps 661 mmHg 81%
    19:00 +10°C° 0 mm 1 mps 660 mmHg 82%
    20:00 +9°C° 0 mm 1 mps 660 mmHg 83%
    21:00 +9°C° 0 mm 1 mps 660 mmHg 84%
    22:00 +8°C° 0 mm 1 mps 660 mmHg 82%
    23:00 +8°C° 0 mm 1 mps 660 mmHg 80%

    Tomorrow, 6 April, Monday

    Time Temperature Precipitation Wind Pressure Humidity
    00:00 +8°C° 0 mm 1 mps 659 mmHg 78%
    01:00 +8°C° 0 mm 1 mps 659 mmHg 76%
    02:00 +8°C° 0 mm 1 mps 659 mmHg 74%
    03:00 +8°C° 0 mm 1 mps 658 mmHg 72%
    04:00 +7°C° 0 mm 1 mps 658 mmHg 72%
    05:00 +7°C° 0 mm 1 mps 658 mmHg 71%
    06:00 +7°C° 0 mm 1 mps 658 mmHg 71%
    07:00 +9°C° 0 mm 1 mps 659 mmHg 68%
    08:00 +11°C° 0 mm 1 mps 659 mmHg 65%
    09:00 +12°C° 0 mm 2 mps 660 mmHg 63%
    10:00 +13°C° 0 mm 2 mps 660 mmHg 65%
    11:00 +13°C° 0 mm 2 mps 660 mmHg 66%
    12:00 +14°C° 0 mm 2 mps 660 mmHg 68%
    13:00 +13°C° 0.2 mm 2 mps 660 mmHg 73%
    14:00 +12°C° 0.2 mm 2 mps 660 mmHg 78%
    15:00 +12°C° 0.2 mm 2 mps 659 mmHg 83%
    16:00 +10°C° 0.9 mm 2 mps 659 mmHg 87%
    17:00 +9°C° 0.9 mm 2 mps 659 mmHg 92%
    18:00 +8°C° 0.9 mm 3 mps 659 mmHg 96%
    19:00 +7°C° 1.3 mm 3 mps 660 mmHg 96%
    20:00 +5°C° 1.3 mm 3 mps 660 mmHg 96%
    21:00 +4°C° 1.3 mm 3 mps 660 mmHg 96%
    22:00 +3°C° 1.5 mm 3 mps 660 mmHg 96%
    23:00 +2°C° 1.5 mm 3 mps 660 mmHg 96%

    Day after tomorrow, 7 April, Tuesday

    Time Temperature Precipitation Wind Pressure Humidity
    00:00 +1°C° 1.5 mm 3 mps 659 mmHg 96%
    01:00 +1°C° 1.3 mm 3 mps 660 mmHg 96%
    02:00 0°C° 1.3 mm 3 mps 660 mmHg 97%
    03:00 0°C° 1.3 mm 3 mps 660 mmHg 97%
    04:00 -1°C° 0.8 mm 3 mps 660 mmHg 97%
    05:00 -1°C° 0.8 mm 3 mps 660 mmHg 97%
    06:00 -2°C° 0.8 mm 3 mps 661 mmHg 97%
    07:00 -2°C° 0.6 mm 3 mps 661 mmHg 97%
    08:00 -2°C° 0.6 mm 3 mps 661 mmHg 96%
    09:00 -2°C° 0.6 mm 3 mps 661 mmHg 96%
    10:00 -2°C° 0.9 mm 2 mps 662 mmHg 96%
    11:00 -2°C° 0.9 mm 2 mps 662 mmHg 96%
    12:00 -2°C° 0.9 mm 2 mps 662 mmHg 96%
    13:00 -2°C° 0.4 mm 2 mps 662 mmHg 96%
    14:00 -2°C° 0.4 mm 2 mps 662 mmHg 95%
    15:00 -2°C° 0.4 mm 2 mps 662 mmHg 95%
    16:00 -2°C° 0.2 mm 2 mps 662 mmHg 95%
    17:00 0°C° 0.2 mm 1 mps 662 mmHg 96%
    18:00 -1°C° 0.2 mm 1 mps 663 mmHg 97%
    19:00 -1°C° 0.3 mm 1 mps 663 mmHg 97%
    20:00 -1°C° 0.3 mm 1 mps 663 mmHg 97%
    21:00 -1°C° 0.3 mm 1 mps 664 mmHg 98%
    22:00 -1°C° 0.5 mm 1 mps 664 mmHg 98%
    23:00 -4°C° 0.5 mm 2 mps 664 mmHg 98%

    8 April, Wednesday

    Time Temperature Precipitation Wind Pressure Humidity
    00:00 -4°C° 0.5 mm 2 mps 664 mmHg 97%
    01:00 -4°C° 0.3 mm 2 mps 664 mmHg 97%
    02:00 -4°C° 0.3 mm 2 mps 665 mmHg 97%
    03:00 -5°C° 0.3 mm 2 mps 665 mmHg 97%
    04:00 -5°C° 0.2 mm 2 mps 665 mmHg 96%
    05:00 -5°C° 0.2 mm 2 mps 665 mmHg 95%
    06:00 -3°C° 0.2 mm 1 mps 665 mmHg 94%
    07:00 -5°C° 0.1 mm 2 mps 666 mmHg 92%
    08:00 -4°C° 0.1 mm 2 mps 666 mmHg 91%
    09:00 -3°C° 0.1 mm 2 mps 666 mmHg 89%
    10:00 -3°C° 0.2 mm 2 mps 666 mmHg 89%
    11:00 -2°C° 0.2 mm 2 mps 665 mmHg 89%
    12:00 -1°C° 0.2 mm 2 mps 665 mmHg 89%
    13:00 -1°C° 0.1 mm 2 mps 665 mmHg 89%
    14:00 -1°C° 0.1 mm 2 mps 664 mmHg 89%
    15:00 -1°C° 0.1 mm 2 mps 663 mmHg 90%
    16:00 +1°C° 0.1 mm 1 mps 663 mmHg 91%
    17:00 +1°C° 0.1 mm 1 mps 663 mmHg 93%
    18:00 0°C° 0.1 mm 1 mps 662 mmHg 94%
    19:00 0°C° 0.1 mm 1 mps 662 mmHg 95%
    20:00 0°C° 0.1 mm 1 mps 662 mmHg 95%
    21:00 -1°C° 0.1 mm 0 mps 662 mmHg 96%
    22:00 -1°C° 0 mm 0 mps 662 mmHg 95%
    23:00 -2°C° 0 mm 0 mps 661 mmHg 95%

    9 April, Thursday

    Time Temperature Precipitation Wind Pressure Humidity
    00:00 -2°C° 0 mm 0 mps 661 mmHg 95%
    01:00 -2°C° 0 mm 0 mps 660 mmHg 94%
    02:00 -2°C° 0 mm 0 mps 659 mmHg 93%
    03:00 -3°C° 0 mm 0 mps 658 mmHg 92%
    04:00 -3°C° 0 mm 0 mps 658 mmHg 91%
    05:00 -3°C° 0 mm 0 mps 658 mmHg 90%
    06:00 -2°C° 0 mm 0 mps 658 mmHg 89%
    07:00 -1°C° 0 mm 0 mps 658 mmHg 88%
    08:00 +1°C° 0 mm 1 mps 658 mmHg 87%
    09:00 +2°C° 0 mm 1 mps 658 mmHg 86%
    10:00 +3°C° 0 mm 1 mps 657 mmHg 86%
    11:00 +3°C° 0 mm 1 mps 657 mmHg 86%
    12:00 +4°C° 0 mm 1 mps 657 mmHg 86%
    13:00 +4°C° 0 mm 1 mps 656 mmHg 86%
    14:00 +4°C° 0 mm 1 mps 656 mmHg 87%
    15:00 +4°C° 0 mm 1 mps 655 mmHg 87%
    16:00 +4°C° 0 mm 1 mps 655 mmHg 89%
    17:00 +4°C° 0 mm 1 mps 655 mmHg 90%
    18:00 +3°C° 0 mm 1 mps 655 mmHg 92%
    19:00 +3°C° 0 mm 1 mps 655 mmHg 92%
    20:00 +2°C° 0 mm 0 mps 656 mmHg 93%
    21:00 +2°C° 0 mm 0 mps 656 mmHg 93%
    22:00 +2°C° 0 mm 0 mps 656 mmHg 93%
    23:00 +1°C° 0 mm 0 mps 656 mmHg 93%

    10 April, Friday

    Time Temperature Precipitation Wind Pressure Humidity
    00:00 +1°C° 0 mm 0 mps 655 mmHg 93%
    01:00 +1°C° 0 mm 0 mps 655 mmHg 93%
    02:00 +1°C° 0 mm 0 mps 655 mmHg 93%
    03:00 +2°C° 0 mm 1 mps 654 mmHg 94%
    04:00 +2°C° 0 mm 1 mps 654 mmHg 93%
    05:00 +2°C° 0 mm 1 mps 654 mmHg 93%
    06:00 +2°C° 0 mm 1 mps 655 mmHg 93%
    07:00 +3°C° 0 mm 1 mps 655 mmHg 92%
    08:00 +3°C° 0 mm 1 mps 655 mmHg 90%
    09:00 +4°C° 0 mm 1 mps 655 mmHg 89%
    10:00 +4°C° 0 mm 1 mps 655 mmHg 90%
    11:00 +3°C° 0 mm 2 mps 655 mmHg 91%
    12:00 +4°C° 0 mm 2 mps 654 mmHg 91%
    13:00 +4°C° 0 mm 2 mps 654 mmHg 92%
    14:00 +4°C° 0 mm 2 mps 654 mmHg 92%
    15:00 +4°C° 0 mm 2 mps 653 mmHg 93%
    16:00 +4°C° 0 mm 1 mps 653 mmHg 94%
    17:00 +4°C° 0 mm 1 mps 653 mmHg 95%
    18:00 +4°C° 0 mm 1 mps 653 mmHg 95%
    19:00 +4°C° 0 mm 1 mps 654 mmHg 96%
    20:00 +4°C° 0 mm 1 mps 654 mmHg 96%
    21:00 +3°C° 0 mm 0 mps 654 mmHg 96%
    22:00 +3°C° 0.4 mm 0 mps 654 mmHg 96%
    23:00 +3°C° 0.4 mm 0 mps 654 mmHg 96%
    Show more